Weather reports worldwide

Advertisment
Doberlug/Kirchhain, Germany (10490): temperature & dewpoint: 16.06.2018 20:00:00 - 22.06.2018 20:00:00 (CEST)Doberlug/Kirchhain, Germany (10490): temperature 5cm & temperature -5cm: 16.06.2018 20:00:00 - 22.06.2018 20:00:00 (CEST)Doberlug/Kirchhain, Germany (10490): temperature -20cm & temperature -100cm: 16.06.2018 20:00:00 - 22.06.2018 20:00:00 (CEST)Doberlug/Kirchhain, Germany (10490): wind speed & gusts: 16.06.2018 20:00:00 - 22.06.2018 20:00:00 (CEST)Doberlug/Kirchhain, Germany (10490): wind direction: 16.06.2018 20:00:00 - 22.06.2018 20:00:00 (CEST)Doberlug/Kirchhain, Germany (10490): reduced air pressure: 16.06.2018 20:00:00 - 22.06.2018 20:00:00 (CEST)Doberlug/Kirchhain, Germany (10490): visibility: 16.06.2018 20:00:00 - 22.06.2018 20:00:00 (CEST)Doberlug/Kirchhain, Germany (10490): sunshine duration: 16.06.2018 20:00:00 - 22.06.2018 20:00:00 (CEST)Doberlug/Kirchhain, Germany (10490): precipitation: 16.06.2018 20:00:00 - 22.06.2018 20:00:00 (CEST)
Date & Time tt [°C] td [°C] tt 5cm [°C] tt -5cm [°C] tt -20cm [°C] tt -100cm [°C] ff [km/h] ff [kn] fx [km/h] fx [kn] dd ppp [hPa] vv [km] sd [min] rr [mm]
22.06.2018 20:00:00 15,9 7,5 16,9 23,1 21,4 20,1 19 10 30 16 W 1018,7 40 58 0,0
22.06.2018 19:00:00 17,1 5,5 18,5 23,6 21,1 20,1 21 12 35 19 WNW 1018,4 29 60 0,0
22.06.2018 18:00:00 16,8 6,9 17,9 23,3 20,7 20,2 16 8 31 17 W 1018,4 70 20 0,0
22.06.2018 17:00:00 16,1 6,8 18,2 22,7 20,3 20,2 16 9 39 21 W 1018,5 59 22 0,0
22.06.2018 16:00:00 16,1 6,7 19,0 23,1 19,8 20,2 21 12 36 19 WNW 1018,3 70 27 0,0
22.06.2018 15:00:00 13,7 8,2 16,5 21,0 19,4 20,3 19 11 32 17 W 1018,7 46 13 0,0
22.06.2018 14:00:00 13,2 9,2 13,8 20,3 19,2 20,3 24 13 40 22 W 1018,5 22 21 0,2
22.06.2018 13:00:00 13,5 8,1 16,8 19,2 18,9 20,3 21 12 39 21 WSW 1018,2 39 13 0,1
22.06.2018 12:00:00 12,9 7,6 14,4 19,0 18,6 20,3 21 11 41 22 W 1018,2 38 29 0,0
22.06.2018 11:00:00 11,1 8,6 11,6 17,8 18,4 20,3 16 9 46 25 W 1018,1 24 8 0,4
22.06.2018 10:00:00 12,6 6,3 13,4 16,9 18,3 20,4 26 14 39 21 W 1017,7 48 0 0,0
22.06.2018 09:00:00 12,4 6,4 13,6 16,0 18,2 20,4 19 11 34 18 W 1017,4 60 0 0,0
22.06.2018 08:00:00 11,2 6,5 11,5 14,8 18,4 20,4 19 10 29 16 WSW 1017,6 56 0 0,0
22.06.2018 07:00:00 10,6 6,5 10,5 14,3 18,7 20,4 17 9 32 18 W 1017,8 62 2 0,0
22.06.2018 06:00:00 10,2 5,5 9,3 13,8 19,1 20,4 16 8 30 16 WSW 1017,9 64 7 0,0
22.06.2018 05:00:00 9,3 5,6 7,8 14,1 19,6 20,4 14 8 24 13 W 1018,0 59 0 0,0
22.06.2018 04:00:00 10,2 5,7 8,9 14,6 20,1 20,4 17 9 31 17 W 1018,1 70 0 0,0
22.06.2018 03:00:00 10,2 5,7 8,7 15,1 20,7 20,3 16 8 29 15 W 1018,1 70 0 0,0
22.06.2018 02:00:00 10,4 5,9 8,9 15,8 21,3 20,3 18 10 30 16 W 1017,9 70 0 0,0
22.06.2018 01:00:00 10,8 5,5 8,9 16,6 22,0 20,3 15 8 30 16 W 1017,9 70 0 0,0
22.06.2018 00:00:00 11,4 5,1 9,5 17,6 22,7 20,3 14 7 29 16 W 1018,1 70 0 0,0
21.06.2018 23:00:00 12,7 4,7 11,0 18,8 23,5 20,3 17 9 26 14 W 1017,8 70 0 0,0
21.06.2018 22:00:00 13,5 4,5 11,6 20,3 24,2 20,3 16 9 44 24 WNW 1017,2 70 0 0,0
21.06.2018 21:00:00 15,4 4,0 14,6 22,1 24,8 20,3 24 13 50 27 WNW 1016,2 40 49 0,0
21.06.2018 20:00:00 17,1 3,8 17,4 23,6 25,2 20,3 28 15 51 28 WNW 1015,4 46 53 0,0
21.06.2018 19:00:00 17,1 7,1 18,2 24,5 25,6 20,3 31 17 47 26 NW 1015,1 16 59 0,0
21.06.2018 18:00:00 16,1 7,9 15,7 24,8 26,2 20,3 27 15 48 26 NW 1014,7 20 26 0,0
21.06.2018 17:00:00 15,7 13,8 17,2 26,0 26,7 20,3 14 7 34 18 W 1014,0 34 4 1,1
21.06.2018 16:00:00 15,1 11,0 15,4 29,0 26,9 20,3 27 14 74 40 NW 1013,7 37 10 0,0
21.06.2018 15:00:00 21,0 9,0 23,7 30,8 26,8 20,3 47 25 76 41 WNW 1011,9 9 32 0,0
21.06.2018 14:00:00 27,8 10,6 28,6 32,1 26,3 20,3 41 22 70 38 W 1008,7 16 38 0,0
21.06.2018 13:00:00 28,6 11,9 30,3 31,3 25,6 20,3 32 18 54 29 W 1007,7 16 42 0,0
21.06.2018 12:00:00 28,7 13,7 30,8 30,4 24,9 20,3 26 14 45 25 WSW 1007,9 18 37 0,0
21.06.2018 11:00:00 27,3 13,8 28,5 29,7 24,2 20,2 19 10 34 19 SW 1008,6 33 39 0,0
21.06.2018 10:00:00 27,0 15,2 29,9 27,7 23,5 20,2 15 8 29 15 S 1009,8 23 60 0,0
21.06.2018 09:00:00 24,4 15,1 26,3 24,8 23,1 20,2 14 8 22 12 SSW 1011,1 13 60 0,0
21.06.2018 08:00:00 21,5 15,3 22,3 22,6 23,1 20,2 9 5 16 9 SSW 1012,1 12 54 0,0
21.06.2018 07:00:00 18,8 14,9 18,8 21,3 23,4 20,2 5 3 11 6 SSW 1012,9 17 21 0,0
21.06.2018 06:00:00 16,7 14,7 16,2 21,0 23,8 20,1 7 4 11 6 SSW 1013,3 11 0 0,0
21.06.2018 05:00:00 15,5 14,3 13,5 21,3 24,3 20,1 6 3 8 4 S 1013,7 11 0 0,0
21.06.2018 04:00:00 16,4 14,5 14,9 22,1 24,9 20,1 5 3 7 4 S 1014,1 15 0 0,0
21.06.2018 03:00:00 16,7 14,7 14,7 22,9 25,4 20,1 3 2 5 3 S 1014,8 15 0 0,0
21.06.2018 02:00:00 17,9 14,7 15,0 23,7 26,0 20,1 4 2 7 4 NW 1015,1 17 0 0,0
21.06.2018 01:00:00 18,1 15,0 15,9 24,8 26,7 20,1 5 3 22 12 NNW 1015,5 21 0 0,0
21.06.2018 00:00:00 19,6 15,9 18,2 26,0 27,3 20,0 5 3 6 3 SSE 1015,5 28 0 0,0
20.06.2018 23:00:00 20,7 16,6 17,5 27,4 27,9 20,0 2 1 5 3 NNW 1015,9 26 0 0,0
20.06.2018 22:00:00 23,3 16,0 21,1 29,1 28,4 20,0 4 2 5 3 SSE 1016,0 29 0 0,0
20.06.2018 21:00:00 26,5 15,5 24,9 31,1 28,7 20,0 2 1 13 7 SSW 1015,9 31 42 0,0
20.06.2018 20:00:00 28,4 14,5 28,6 32,6 28,8 20,1 9 5 15 8 WSW 1016,1 40 44 0,0
20.06.2018 19:00:00 28,0 14,2 27,6 34,3 28,6 20,1 8 4 26 14 SW 1016,7 50 44 0,0
20.06.2018 18:00:00 29,4 14,4 32,7 34,8 28,2 20,1 11 6 24 13 S 1017,2 35 42 0,0
20.06.2018 17:00:00 28,4 13,9 30,7 35,5 27,5 20,1 11 6 26 14 SW 1018,1 45 37 0,0
20.06.2018 16:00:00 27,8 13,9 30,6 35,1 26,7 20,1 12 7 30 16 SW 1018,9 26 43 0,0
20.06.2018 15:00:00 27,2 13,8 29,4 34,1 25,8 20,1 11 6 23 12 W 1019,6 40 25 0,0
20.06.2018 14:00:00 27,6 14,8 33,0 33,2 24,8 20,1 6 3 15 8 SSE 1020,4 36 29 0,0
20.06.2018 13:00:00 24,9 13,6 27,8 32,4 23,6 20,1 8 4 21 12 S 1021,5 26 36 0,0
20.06.2018 12:00:00 24,4 14,7 28,5 29,7 22,5 20,1 8 4 21 11 SSW 1022,0 29 33 0,0
20.06.2018 11:00:00 23,4 15,1 27,2 26,5 21,7 20,2 10 5 20 11 S 1022,9 20 14 0,0
20.06.2018 10:00:00 22,7 15,6 25,5 24,1 21,1 20,2 13 7 22 12 SSE 1023,2 26 19 0,0
20.06.2018 09:00:00 20,7 15,5 21,9 21,9 20,8 20,2 5 3 9 5 SSE 1023,4 15 3 0,0
20.06.2018 08:00:00 19,2 15,0 20,5 20,4 20,6 20,2 3 2 6 4 SSE 1023,6 15 29 0,0
20.06.2018 07:00:00 17,2 14,3 16,7 18,3 20,8 20,1 2 1 4 2 S 1023,7 14 60 0,0
20.06.2018 06:00:00 13,8 13,1 12,0 17,9 21,2 20,1 4 2 7 4 S 1024,0 9 2 0,0
20.06.2018 05:00:00 13,2 12,6 10,4 18,2 21,6 20,1 4 2 6 4 S 1024,0 10 0 0,0
20.06.2018 04:00:00 13,7 12,9 10,7 18,7 22,0 20,1 4 2 5 3 SSW 1023,9 12 0 0,0
20.06.2018 03:00:00 14,1 13,0 11,7 19,3 22,5 20,1 3 2 5 3 SW 1023,7 15 0 0,0
20.06.2018 02:00:00 14,7 13,5 11,9 20,0 23,0 20,1 3 2 6 3 SW 1023,6 17 0 0,0
20.06.2018 01:00:00 15,3 13,4 12,1 20,8 23,5 20,1 4 2 9 5 W 1023,4 21 0 0,0
20.06.2018 00:00:00 16,6 13,9 13,0 21,7 24,0 20,1 6 4 10 6 W 1023,1 22 0 0,0
19.06.2018 23:00:00 17,7 14,3 14,6 22,8 24,4 20,1 5 3 6 3 WSW 1022,8 30 0 0,0
19.06.2018 22:00:00 19,4 14,3 16,0 24,2 24,8 20,1 3 2 14 8 SW 1022,4 36 0 0,0
19.06.2018 21:00:00 22,4 13,9 21,3 25,3 25,0 20,1 9 5 16 9 WNW 1021,7 42 2 0,0
19.06.2018 20:00:00 23,2 13,6 22,8 25,9 25,2 20,2 11 6 20 11 WNW 1021,7 51 0 0,0
19.06.2018 19:00:00 23,3 13,2 23,1 26,5 25,4 20,2 15 8 27 15 WNW 1021,8 58 0 0,0
19.06.2018 18:00:00 24,2 12,1 24,4 27,1 25,5 20,2 13 7 29 15 WNW 1021,6 53 0 0,0
19.06.2018 17:00:00 24,3 11,7 24,2 28,1 25,5 20,2 11 6 21 12 W 1021,3 50 0 0,0
19.06.2018 16:00:00 24,5 11,7 24,8 29,6 25,2 20,2 11 6 23 13 W 1021,1 51 0 0,0
19.06.2018 15:00:00 24,9 11,5 27,3 29,8 24,7 20,2 10 5 23 12 W 1021,2 48 0 0,0
19.06.2018 14:00:00 24,3 10,6 26,5 30,0 23,9 20,2 13 7 27 15 W 1021,1 42 22 0,0
19.06.2018 13:00:00 24,3 11,9 29,8 28,0 23,3 20,2 16 9 27 15 WSW 1021,2 32 29 0,0
19.06.2018 12:00:00 22,4 13,7 25,8 26,6 22,8 20,2 14 8 31 17 W 1021,4 39 13 0,0
19.06.2018 11:00:00 21,3 13,8 22,6 26,4 22,2 20,2 17 9 26 14 W 1021,4 30 27 0,0
19.06.2018 10:00:00 21,3 13,4 24,8 23,8 21,7 20,2 8 5 23 12 W 1021,5 34 20 0,0
19.06.2018 09:00:00 20,2 13,2 21,4 21,9 21,5 20,2 18 10 29 15 WNW 1021,6 35 21 0,0
19.06.2018 08:00:00 18,9 13,2 19,7 20,7 21,5 20,2 8 5 17 9 W 1021,1 42 2 0,0
19.06.2018 07:00:00 17,2 12,5 17,7 19,8 21,6 20,2 3 2 13 7 S 1020,8 39 0 0,0
19.06.2018 06:00:00 16,2 12,0 16,0 19,4 21,9 20,2 8 5 16 9 SSW 1020,5 39 0 0,0
19.06.2018 05:00:00 15,6 12,1 15,2 19,5 22,3 20,2 8 5 13 7 S 1020,4 40 0 0,0
19.06.2018 04:00:00 15,7 11,9 14,9 19,6 22,7 20,2 8 4 12 6 SSW 1020,6 41 0 0,0
19.06.2018 03:00:00 15,8 11,7 13,7 20,2 23,2 20,2 7 4 11 6 SSW 1020,5 45 0 0,0
19.06.2018 02:00:00 16,0 11,9 13,2 21,0 23,6 20,2 8 4 13 7 SSW 1020,3 44 0 0,0
19.06.2018 01:00:00 17,4 11,9 15,5 21,9 24,1 20,2 8 5 13 7 SSW 1020,5 43 0 0,0
19.06.2018 00:00:00 17,9 12,1 16,7 22,6 24,6 20,2 7 4 10 6 SSW 1020,5 38 0 0,0
18.06.2018 23:00:00 17,5 12,0 14,9 23,5 25,1 20,2 7 4 9 5 S 1020,5 46 0 0,0
18.06.2018 22:00:00 21,0 11,2 18,0 25,0 25,4 20,2 7 4 11 6 WSW 1019,7 40 0 0,0
18.06.2018 21:00:00 22,0 11,3 20,6 26,2 25,7 20,2 6 3 10 6 WSW 1019,2 38 0 0,0
18.06.2018 20:00:00 22,7 10,8 22,3 27,0 25,8 20,2 5 3 12 7 W 1019,1 46 0 0,0
18.06.2018 19:00:00 22,6 9,8 22,3 27,7 25,9 20,3 6 3 22 12 WSW 1019,4 43 0 0,0
18.06.2018 18:00:00 23,0 9,7 24,0 29,0 25,9 20,3 13 7 24 13 W 1019,5 51 4 0,0
18.06.2018 17:00:00 22,8 9,8 24,1 29,1 25,7 20,3 16 8 24 13 W 1019,9 51 0 0,0
18.06.2018 16:00:00 22,2 9,1 23,9 30,0 25,3 20,3 16 9 25 14 W 1020,0 45 0 0,0
18.06.2018 15:00:00 23,0 9,3 26,0 30,9 24,6 20,3 10 5 25 13 WNW 1020,0 45 29 0,0
18.06.2018 14:00:00 22,7 9,7 26,2 30,0 23,7 20,3 16 8 30 16 W 1020,4 25 56 0,0
18.06.2018 13:00:00 21,5 11,0 25,6 26,8 23,1 20,3 17 9 28 15 WSW 1020,7 25 12 0,0
18.06.2018 12:00:00 20,3 10,1 22,3 25,7 22,6 20,3 11 6 21 12 W 1020,8 29 2 0,0
18.06.2018 11:00:00 20,1 10,0 21,8 23,9 22,3 20,3 13 7 23 13 NW 1020,9 29 0 0,0
18.06.2018 10:00:00 19,3 10,2 21,2 22,7 22,1 20,3 8 4 18 10 W 1020,1 30 6 0,0
18.06.2018 09:00:00 18,3 10,6 19,1 21,9 21,9 20,3 8 4 13 7 W 1020,4 36 0 0,0
18.06.2018 08:00:00 17,6 10,3 18,6 20,8 21,9 20,3 6 3 10 5 W 1019,8 34 32 0,0
18.06.2018 07:00:00 16,2 9,6 15,7 19,6 22,2 20,2 5 3 9 5 WSW 1019,5 31 19 0,0
18.06.2018 06:00:00 15,0 8,9 14,9 19,1 22,6 20,2 2 1 13 7 W 1019,6 32 17 0,0
18.06.2018 05:00:00 12,6 8,9 9,0 19,2 23,1 20,2 7 4 9 5 W 1019,4 29 0 0,0
18.06.2018 04:00:00 12,6 9,6 8,5 20,3 23,7 20,2 2 1 7 4 W 1019,0 27 0 0,0
18.06.2018 03:00:00 14,6 10,6 11,3 21,5 24,1 20,2 6 3 9 5 W 1018,7 33 0 0,0
18.06.2018 02:00:00 17,3 10,2 16,1 22,3 24,5 20,2 0 0 4 2 N 1018,3 47 0 0,0
18.06.2018 01:00:00 17,1 10,8 16,1 22,7 25,0 20,2 3 2 11 6 N 1018,2 58 0 0,0
18.06.2018 00:00:00 16,8 9,8 16,3 23,0 25,6 20,1 9 5 11 6 NW 1018,0 65 0 0,0
17.06.2018 23:00:00 17,0 9,8 13,0 24,3 26,1 20,1 6 4 13 7 NW 1017,4 70 0 0,0
17.06.2018 22:00:00 19,6 9,4 17,2 25,6 26,6 20,1 8 4 16 9 NNW 1017,0 70 0 0,0
17.06.2018 21:00:00 21,6 10,2 21,0 26,7 27,1 20,1 7 4 21 12 NNW 1016,4 70 0 0,0
17.06.2018 20:00:00 22,4 10,7 21,9 27,8 27,4 20,1 10 5 23 13 WNW 1015,8 53 0 0,0
17.06.2018 19:00:00 23,7 11,3 23,5 29,5 27,6 20,1 21 12 35 19 NNW 1015,1 45 2 0,0
17.06.2018 18:00:00 25,5 12,8 27,5 30,3 27,6 20,1 14 8 31 17 WNW 1014,3 34 11 0,0
17.06.2018 17:00:00 25,0 13,8 26,4 30,0 27,7 20,1 13 7 29 15 W 1014,4 40 0 0,0
17.06.2018 16:00:00 25,3 13,4 26,0 31,2 27,7 20,1 21 11 34 18 WNW 1014,0 32 7 0,0
17.06.2018 15:00:00 26,3 13,5 27,4 32,2 27,4 20,1 21 11 38 20 NW 1013,8 36 12 0,0
17.06.2018 14:00:00 25,9 12,6 27,2 32,3 27,0 20,1 14 8 27 15 WNW 1014,0 35 4 0,0
17.06.2018 13:00:00 26,3 12,6 30,4 33,3 26,1 20,1 13 7 27 14 SW 1014,0 42 39 0,0
17.06.2018 12:00:00 26,2 13,3 31,1 31,7 25,3 20,0 12 7 27 15 W 1014,3 27 44 0,0
17.06.2018 11:00:00 26,0 12,3 30,2 30,4 24,4 20,0 11 6 23 12 W 1014,4 30 60 0,0
17.06.2018 10:00:00 24,9 13,2 28,0 27,7 23,8 20,0 10 5 21 11 W 1014,4 17 60 0,0
17.06.2018 09:00:00 23,6 13,6 25,6 25,0 23,5 20,0 7 4 12 7 W 1014,4 19 60 0,0
17.06.2018 08:00:00 20,2 13,2 21,1 22,9 23,5 20,0 10 5 16 9 SW 1014,5 14 41 0,0
17.06.2018 07:00:00 18,5 13,2 17,7 22,3 23,8 20,0 5 3 9 5 S 1014,3 18 0 0,0
17.06.2018 06:00:00 18,3 12,7 18,1 22,2 24,2 19,9 6 3 11 6 S 1013,9 19 0 0,0
17.06.2018 05:00:00 18,3 12,2 17,5 22,6 24,6 19,9 7 4 12 7 S 1013,9 20 0 0,0
17.06.2018 04:00:00 18,7 12,3 17,6 23,1 25,0 19,9 6 4 11 6 SSE 1013,9 22 0 0,0
17.06.2018 03:00:00 18,5 13,2 17,1 23,7 25,5 19,9 3 2 6 3 ESE 1014,3 21 0 0,0
17.06.2018 02:00:00 18,8 13,8 17,7 24,4 25,9 19,8 4 2 8 4 S 1014,5 18 0 0,0
17.06.2018 01:00:00 19,5 13,1 18,5 25,1 26,4 19,8 3 1 4 2 E 1014,6 21 0 0,0
17.06.2018 00:00:00 19,9 13,5 18,9 26,0 27,0 19,8 2 1 10 5 SSE 1014,5 23 0 0,0
16.06.2018 23:00:00 20,7 12,8 19,8 27,0 27,5 19,8 5 3 8 4 SE 1014,4 26 0 0,0
16.06.2018 22:00:00 21,8 12,7 20,8 28,2 28,1 19,8 5 3 6 3 S 1014,3 35 0 0,0
16.06.2018 21:00:00 23,7 11,7 22,2 29,8 28,5 19,8 5 3 7 4 SSW 1014,1 35 0 0,0
16.06.2018 20:00:00 24,9 10,3 24,6 31,7 28,8 19,8 5 3 16 9 SW 1013,9 43 0 0,0

tt = temperature
td = dewpoint
tt 5cm = temperature 5cm
tt -5cm = temperature -5cm
tt -20cm = temperature -20cm
tt -100cm = temperature -100cm
ff = wind speed
fx = gusts
dd = wind direction
ppp = reduced air pressure
vv = visibility
sd = sunshine duration
rr = precipitation

Next stations